Temperature
27 24 24 24 25 26 26 26 25 26 28 27 26 26 26 27 26 26 25 25 24 24 24 24 23 23 22 22 22 21 21 21 21 20 20 20 20 19 19 19 19 19 19 19
25 24 26 27 27 27 27 26 26 26 27 27 25 26 26 26 26 26 25 25 24 24 24 23 23 23 22 22 22 22 21 21 21 21 20 20 20 19 19 19 19 19 19 19
25 26 28 28 28 27 27 26 26 26 27 27 26 25 25 26 26 26 26 25 25 24 24 23 23 23 22 22 22 22 21 21 21 20 20 20 20 19 19 19 19 19 19 19
25 27 28 28 28 27 26 28 28 27 26 24 25 23 24 24 25 25 25 25 25 24 24 23 23 23 23 23 22 22 22 21 21 20 20 20 20 20 19 19 19 19 19 19
26 27 27 28 28 28 27 28 28 27 25 24 24 23 23 24 24 24 24 25 25 25 24 24 23 23 23 23 22 22 21 21 21 21 20 20 20 20 20 19 19 19 19 19
26 28 28 28 29 29 28 27 26 24 22 23 24 24 23 23 24 24 24 25 25 25 24 24 23 23 23 22 22 22 21 21 21 21 20 20 20 20 20 19 19 19 19 19
26 27 28 29 28 28 27 24 23 23 22 23 23 23 23 24 25 25 24 25 25 24 24 23 23 23 23 22 22 22 21 21 21 20 20 20 20 20 20 20 19 19 19 19
24 25 27 28 27 27 26 24 23 23 23 22 23 23 24 25 25 25 25 25 24 24 24 23 23 23 23 22 22 22 21 21 21 20 20 20 20 20 19 19 19 19 19 19
24 25 27 28 29 27 26 24 23 22 23 23 22 23 24 24 24 24 24 24 24 24 23 24 23 23 23 22 22 22 22 21 21 21 20 20 20 20 20 19 19 19 19 19
24 25 26 28 28 27 26 25 22 22 22 23 23 23 22 23 23 23 23 23 23 24 24 24 24 23 23 23 22 22 22 22 21 21 21 20 20 20 20 20 19 19 19 19
24 24 25 26 26 26 26 25 23 20 21 21 22 22 24 23 23 23 23 23 23 24 24 24 24 24 23 22 22 22 22 21 21 21 20 20 20 20 20 19 19 19 19 19
24 22 23 24 26 27 26 25 22 22 22 20 21 22 24 23 23 23 23 23 23 23 23 23 23 23 23 22 22 22 22 21 21 21 20 20 20 20 20 19 19 19 19 19
24 22 22 23 24 25 26 25 23 21 20 20 21 22 23 22 23 23 23 23 23 23 23 23 23 22 22 22 22 21 21 21 21 20 20 20 20 20 19 19 19 19 19 18
25 21 22 23 23 24 25 26 25 22 21 21 22 22 23 22 22 22 23 23 23 23 23 22 22 22 22 22 22 21 21 21 20 20 20 20 19 19 19 19 19 18 18 18
23 23 23 23 25 26 26 26 25 24 22 22 22 22 22 22 22 23 23 23 23 23 22 22 22 22 22 22 22 21 21 20 20 19 19 19 19 19 19 18 18 18 18 18
20 22 23 24 25 25 26 26 26 25 24 23 23 22 22 22 23 23 23 23 22 22 22 22 22 22 22 22 22 21 21 20 20 19 19 19 19 19 19 18 18 18 18 18
20 21 21 22 23 24 24 24 25 24 24 24 23 22 22 21 21 22 22 22 22 22 22 22 22 22 22 22 21 21 21 20 20 19 19 19 19 18 18 18 18 18 17 17
20 19 19 20 22 23 22 23 25 24 24 23 23 22 22 22 22 23 23 22 22 22 22 22 22 22 22 22 21 21 21 20 20 19 19 19 19 18 18 18 17 17 17 17
20 19 19 19 20 21 23 24 25 24 23 23 22 22 22 22 22 21 22 23 22 22 22 22 22 22 22 21 21 20 20 20 19 19 19 19 18 18 18 18 17 17 17 17
19 19 19 19 21 21 22 24 25 23 22 22 22 22 21 21 19 20 22 22 22 22 22 21 21 21 21 21 20 20 19 19 19 19 18 18 18 18 18 17 17 17 17 17
19 19 19 19 20 20 22 23 24 22 21 22 23 22 22 20 21 22 22 22 22 22 21 21 21 20 20 20 20 19 19 19 19 19 18 18 18 18 17 17 17 16 16 16
19 18 18 18 19 20 22 22 21 20 22 22 23 23 22 22 22 22 22 22 21 21 21 21 20 20 19 19 19 19 19 19 18 18 18 18 17 17 17 17 16 16 16 16
18 18 17 18 18 19 21 21 22 22 22 22 23 23 22 22 21 21 21 21 21 21 20 20 20 19 19 18 18 19 18 18 18 18 18 17 17 17 17 16 16 16 16 16
18 18 17 17 18 19 21 21 22 22 22 22 22 22 22 21 20 21 20 20 20 20 19 19 19 19 18 18 18 18 18 17 17 17 17 17 17 16 16 16 16 16 15 15
17 17 17 17 18 19 20 20 21 21 21 21 21 21 21 21 20 20 20 19 19 19 19 18 18 18 18 17 17 17 17 17 17 17 17 16 16 16 16 15 15 15 15 15
16 16 16 16 17 17 18 20 20 20 20 20 20 20 20 20 20 19 19 19 19 18 18 18 18 17 17 17 17 17 17 16 16 16 16 16 16 15 15 15 15 15 15 15
Wind_Speed
2 2 4 8 7 8 6 4 6 7 4 1 3 4 6 7 8 9 10 11 12 11 10 11 12 12 11 9 9 9 9 7 6 5 4 4 3 2 2 2 5 6 6 5
3 5 10 8 6 7 8 7 7 6 5 3 3 3 4 7 11 11 12 12 12 10 10 11 11 12 12 11 10 10 9 8 7 5 4 4 4 2 2 2 3 5 5 5
7 9 7 7 7 6 7 8 8 6 2 0 2 3 4 4 5 7 9 11 12 14 15 13 13 11 12 12 12 11 9 8 7 6 4 3 3 2 1 2 2 2 5 5
7 8 6 6 6 5 6 8 7 8 3 2 3 2 6 5 4 7 8 10 12 12 13 13 13 13 13 13 11 10 9 8 8 7 7 6 5 4 3 3 3 2 3 4
7 5 5 7 8 6 7 6 3 4 3 1 1 2 6 3 4 7 8 10 11 13 15 15 14 14 12 12 11 10 9 8 8 8 8 7 5 4 3 3 3 3 2 2
8 6 5 7 7 5 4 2 3 3 4 1 4 3 5 5 8 7 8 9 10 10 12 12 12 11 10 10 10 9 9 8 7 8 7 8 7 6 4 4 4 3 2 1
6 7 6 3 4 5 2 5 4 5 4 5 4 2 7 7 6 7 10 9 9 9 10 10 10 11 11 12 11 10 10 8 7 8 8 8 8 7 7 6 5 4 2 2
4 7 6 4 5 5 3 7 7 4 4 4 3 3 6 5 3 3 6 8 9 8 9 11 13 12 11 11 11 11 11 9 8 8 8 7 7 5 4 5 4 4 3 3
7 7 6 5 5 7 3 3 8 7 2 0 4 4 5 3 2 4 5 7 8 8 8 9 11 11 10 11 11 12 11 9 9 9 8 7 6 6 5 5 4 4 3 3
7 4 6 4 0 0 6 6 5 5 4 2 4 3 4 3 2 3 5 8 8 8 8 9 10 10 10 11 11 10 11 10 9 9 8 8 6 6 6 5 5 4 4 3
7 5 6 3 3 5 2 2 4 4 5 6 3 6 5 8 7 6 6 8 10 10 10 9 9 10 10 9 9 9 9 9 8 8 7 7 6 6 5 5 5 5 4 4
6 6 5 8 7 6 6 7 7 5 4 5 5 7 5 5 6 6 5 5 7 9 8 8 8 8 8 8 9 9 9 9 9 8 7 7 6 6 6 5 5 5 4 4
5 6 1 7 7 3 2 3 5 6 5 4 5 6 3 2 4 5 7 7 7 8 8 7 7 7 8 8 8 8 8 9 8 8 7 6 6 6 6 6 5 5 5 4
5 5 7 10 8 4 2 3 3 6 4 4 6 6 4 3 5 5 7 8 8 8 8 8 8 8 8 8 8 7 7 7 8 8 7 7 7 7 7 6 5 5 5 5
4 4 5 6 5 3 2 3 3 4 7 7 7 8 8 8 7 7 7 8 8 7 8 8 9 9 8 8 8 7 6 7 7 7 7 7 6 5 5 5 5 5 5 6
3 3 2 2 2 1 1 3 3 3 3 5 5 5 6 5 5 5 6 8 8 8 8 8 8 8 8 8 7 6 6 6 7 8 7 6 6 5 5 5 5 4 4 4
1 2 3 3 2 2 3 4 3 2 3 6 6 7 6 6 8 8 7 7 7 7 6 7 8 8 7 7 7 7 6 6 7 7 6 6 6 6 6 6 5 5 5 4
3 2 3 3 2 3 7 5 4 4 0 1 4 6 9 9 9 6 6 7 7 5 5 6 7 7 6 6 6 6 5 5 6 6 6 6 7 6 6 5 5 5 4 4
5 6 3 4 3 4 6 3 2 4 1 1 4 7 7 7 6 1 3 6 7 7 6 5 5 5 6 6 6 6 5 5 5 5 5 6 6 6 6 6 6 5 4 4
3 5 5 4 4 5 7 6 2 5 0 3 3 7 7 6 4 3 4 5 5 5 4 4 4 5 5 6 7 7 5 5 5 5 5 5 5 6 7 7 6 4 4 4
3 3 3 4 4 5 5 5 2 4 6 3 4 6 6 5 6 6 5 5 5 4 4 5 5 5 4 5 7 7 6 6 6 4 4 4 4 5 6 5 4 4 4 3
3 2 3 3 3 6 5 2 3 5 4 4 5 5 6 5 4 5 6 6 6 5 5 5 5 3 3 4 6 6 5 5 4 4 4 4 4 4 4 4 4 4 4 3
2 5 5 5 6 4 1 3 2 4 4 2 3 5 7 6 5 6 6 6 6 5 4 4 5 3 1 2 4 6 5 4 4 4 4 4 3 3 3 4 4 2 2 3
4 1 3 1 1 0 2 4 5 5 5 4 4 6 7 5 6 7 7 6 5 4 3 4 4 3 1 1 2 3 3 3 4 4 4 4 4 3 2 2 3 3 3 3
4 3 2 1 1 3 4 4 5 6 6 7 5 5 6 7 7 6 6 6 5 4 3 4 4 3 2 1 1 1 3 3 4 4 3 3 3 3 3 2 2 3 3 5
2 1 2 3 4 2 2 1 4 6 5 5 6 4 3 4 6 6 5 5 5 5 4 3 3 3 2 2 1 1 2 3 4 3 3 3 3 3 3 3 1 1 1 3
Wind_Direction
265 107 233 233 212 209 222 235 267 274 258 192 231 230 203 185 166 174 176 173 172 175 169 161 159 157 151 150 150 154 154 158 151 144 142 141 148 147 149 160 155 155 157 148
345 259 234 239 247 225 223 240 253 267 253 169 198 247 232 184 181 183 179 178 173 168 163 163 161 160 160 163 162 160 160 163 163 162 158 155 156 162 165 162 152 155 153 152
223 249 251 251 249 236 231 218 225 228 278 78 128 307 263 234 194 188 183 176 172 173 172 169 167 169 167 170 171 169 168 164 166 161 142 127 102 81 101 137 162 169 154 152
246 252 257 258 248 226 254 245 221 200 181 237 155 216 270 230 211 201 190 178 179 176 172 171 171 174 177 176 171 164 168 169 169 161 157 157 161 174 195 181 177 176 159 158
253 250 250 259 253 228 232 249 220 200 169 95 332 155 269 247 219 217 193 186 184 175 174 177 179 179 177 173 169 167 165 171 170 164 164 165 171 181 178 164 165 174 185 176
251 260 233 237 258 237 222 6 5 42 75 21 251 177 262 240 219 209 195 185 180 175 174 177 177 172 172 171 168 167 166 175 173 169 170 172 172 170 167 173 176 178 178 196
291 284 268 244 283 302 55 82 22 358 7 256 263 178 245 251 234 196 184 183 179 168 163 166 167 173 177 175 171 171 171 179 177 173 175 177 176 175 182 186 185 177 181 194
228 276 260 228 195 215 222 141 159 199 226 275 326 233 261 279 260 158 162 164 162 171 170 168 170 175 179 179 174 175 178 182 180 180 181 178 177 178 185 187 182 182 187 194
195 245 264 244 211 169 188 190 173 146 168 233 276 283 318 343 80 110 130 140 158 171 169 169 167 169 176 182 183 179 177 179 183 184 180 180 181 176 179 180 177 180 184 192
176 230 278 271 355 244 166 161 97 116 155 231 286 258 225 242 199 153 150 160 163 159 156 156 161 174 186 182 182 177 175 180 181 181 184 186 182 179 178 173 177 181 188 193
172 187 279 316 200 215 187 142 129 136 156 161 227 266 226 201 194 183 187 177 165 161 159 157 161 171 179 176 177 177 175 177 181 182 181 180 180 178 174 174 181 181 182 185
179 157 240 261 253 210 180 181 157 165 215 169 169 255 264 193 181 169 182 177 168 161 160 155 155 152 162 170 173 175 176 181 185 182 178 179 176 171 175 181 183 177 177 187
155 136 186 312 318 317 185 189 171 151 138 162 174 251 273 176 150 154 162 167 164 157 152 151 151 158 167 169 167 172 178 181 178 171 171 173 177 180 187 190 189 185 188 193
142 136 173 205 223 222 242 257 177 136 156 201 211 215 248 218 173 162 158 159 154 157 160 161 164 172 175 172 169 173 177 175 170 167 171 180 188 192 192 191 187 189 191 194
100 159 193 212 213 190 215 231 198 174 179 183 210 193 215 204 185 170 161 154 154 163 169 170 172 176 172 166 167 170 174 173 168 165 173 189 192 187 183 185 190 191 192 195
52 153 150 283 262 120 272 243 219 213 184 173 163 205 215 177 149 148 159 162 165 171 176 176 171 166 168 168 166 165 170 172 165 170 182 184 180 181 184 189 191 190 197 201
8 119 134 233 278 43 277 238 206 218 214 173 192 212 177 146 151 164 168 170 169 166 170 168 168 171 172 170 166 169 172 164 163 170 175 179 181 183 183 188 189 196 203 206
168 129 138 154 89 214 246 248 173 161 196 192 174 167 162 161 161 161 157 154 152 152 163 177 176 174 173 168 164 160 153 157 167 174 181 185 185 187 185 184 192 202 202 202
166 151 129 130 158 252 287 288 186 160 293 336 144 148 158 146 107 71 181 153 149 146 160 180 173 164 162 165 163 150 150 154 164 182 192 196 191 188 186 192 201 204 202 205
61 119 128 134 150 214 247 270 222 120 276 280 158 157 163 131 132 218 194 152 135 131 135 144 146 136 145 160 152 147 159 164 184 198 203 200 190 189 193 199 200 198 196 205
18 46 134 159 185 242 261 282 85 145 218 226 150 154 154 166 185 192 160 137 127 120 125 130 131 137 154 161 154 158 166 185 195 189 189 190 193 197 196 191 187 186 187 187
182 159 185 152 170 241 285 34 144 196 194 152 126 131 137 142 139 138 129 125 115 107 101 114 124 132 143 148 153 160 181 192 177 168 175 186 187 194 189 181 184 185 183 183
191 194 188 184 206 233 271 131 149 136 122 120 122 120 122 125 136 136 129 125 120 121 121 118 122 115 123 158 162 176 194 178 165 165 175 179 180 184 177 179 186 188 187 188
310 358 112 105 295 308 71 80 73 85 96 90 107 119 120 132 138 130 127 126 125 120 116 112 116 120 120 166 158 171 176 167 161 172 181 181 179 183 179 173 182 183 190 192
290 356 65 107 292 35 35 66 81 75 76 74 77 100 127 133 133 136 137 140 140 136 128 124 132 150 173 151 126 133 138 135 157 170 179 176 175 174 177 178 193 197 208 202
293 194 157 219 238 179 253 353 80 85 86 92 95 89 100 126 134 132 137 145 142 144 135 134 142 157 178 157 146 149 146 144 145 165 180 185 184 184 180 173 176 345 227 220
Height
1492 1499 1504 1500 1497 1499 1501 1505 1508 1500 1490 1494 1497 1496 1492 1491 1493 1495 1496 1497 1499 1501 1504 1506 1509 1511 1513 1515 1517 1518 1520 1522 1523 1524 1526 1527 1528 1529 1531 1532 1533 1534 1534 1534
1497 1500 1491 1488 1490 1494 1498 1504 1505 1497 1488 1492 1498 1496 1490 1490 1490 1491 1493 1495 1497 1500 1503 1505 1507 1509 1511 1513 1515 1517 1518 1520 1522 1524 1525 1527 1528 1529 1530 1531 1532 1533 1533 1534
1499 1491 1484 1487 1490 1494 1496 1501 1500 1498 1491 1491 1498 1503 1495 1490 1489 1490 1491 1493 1494 1497 1499 1502 1505 1508 1510 1511 1513 1515 1517 1519 1521 1523 1525 1526 1527 1528 1529 1530 1531 1532 1533 1533
1491 1484 1484 1486 1488 1489 1498 1486 1486 1491 1500 1508 1502 1521 1501 1492 1490 1489 1490 1491 1492 1495 1497 1500 1502 1505 1507 1509 1511 1514 1516 1517 1519 1521 1523 1524 1525 1527 1528 1529 1530 1531 1532 1532
1489 1482 1483 1486 1483 1482 1486 1479 1484 1488 1499 1508 1505 1516 1508 1493 1492 1488 1487 1489 1490 1492 1494 1497 1499 1502 1505 1508 1510 1512 1514 1516 1518 1519 1521 1523 1525 1526 1528 1529 1529 1530 1531 1531
1482 1477 1477 1478 1475 1475 1476 1482 1488 1496 1507 1522 1510 1514 1513 1496 1488 1485 1484 1486 1488 1490 1493 1496 1499 1502 1504 1506 1508 1510 1513 1515 1516 1518 1520 1522 1523 1525 1526 1527 1528 1528 1529 1530
1487 1479 1473 1472 1478 1476 1479 1499 1520 1523 1530 1526 1507 1510 1507 1485 1479 1478 1480 1483 1486 1488 1491 1494 1497 1501 1502 1504 1506 1508 1511 1513 1515 1517 1519 1520 1522 1524 1525 1526 1527 1527 1528 1528
1497 1495 1475 1470 1475 1481 1483 1495 1521 1532 1534 1524 1509 1511 1495 1478 1475 1476 1478 1481 1485 1488 1490 1492 1494 1497 1500 1502 1504 1506 1509 1511 1513 1515 1517 1519 1521 1522 1523 1525 1525 1526 1527 1527
1494 1491 1469 1466 1466 1471 1483 1491 1493 1511 1517 1524 1517 1503 1490 1479 1477 1477 1480 1482 1484 1487 1489 1490 1492 1495 1498 1500 1502 1504 1507 1509 1511 1513 1515 1517 1519 1520 1522 1523 1524 1525 1525 1526
1477 1487 1474 1466 1464 1467 1472 1480 1497 1511 1525 1531 1520 1511 1505 1489 1482 1480 1479 1480 1482 1485 1487 1489 1491 1494 1496 1498 1501 1503 1505 1507 1509 1511 1513 1515 1517 1518 1520 1521 1521 1522 1523 1524
1469 1484 1480 1472 1474 1477 1477 1482 1491 1506 1512 1526 1529 1516 1483 1482 1478 1479 1478 1479 1480 1483 1486 1488 1490 1492 1496 1498 1500 1502 1503 1506 1508 1510 1511 1513 1515 1516 1518 1518 1519 1520 1521 1521
1465 1479 1489 1479 1465 1463 1468 1476 1487 1504 1510 1513 1519 1510 1474 1474 1474 1476 1477 1479 1480 1482 1484 1486 1488 1491 1494 1496 1498 1500 1502 1504 1506 1508 1509 1511 1513 1514 1515 1516 1517 1518 1518 1519
1462 1479 1496 1492 1482 1470 1470 1470 1476 1487 1500 1510 1515 1504 1473 1473 1473 1474 1476 1478 1480 1482 1484 1486 1488 1490 1492 1493 1496 1498 1500 1502 1504 1506 1507 1509 1510 1511 1512 1514 1515 1515 1516 1516
1453 1473 1486 1494 1486 1474 1472 1470 1470 1483 1499 1503 1499 1491 1479 1475 1474 1473 1474 1476 1478 1482 1484 1485 1487 1489 1490 1492 1494 1496 1498 1500 1501 1502 1504 1506 1508 1509 1510 1511 1512 1513 1514 1514
1453 1469 1469 1469 1464 1464 1466 1467 1467 1474 1480 1488 1486 1484 1477 1473 1472 1473 1474 1475 1478 1481 1483 1484 1486 1487 1487 1489 1492 1494 1496 1497 1499 1500 1501 1503 1506 1507 1507 1508 1509 1510 1511 1511
1457 1465 1466 1468 1462 1462 1466 1464 1465 1466 1468 1473 1475 1477 1469 1470 1471 1472 1473 1475 1477 1479 1480 1482 1484 1485 1487 1488 1490 1492 1493 1495 1496 1498 1500 1502 1503 1504 1505 1506 1507 1508 1508 1509
1462 1466 1473 1479 1468 1467 1477 1466 1464 1466 1463 1466 1474 1471 1466 1469 1470 1471 1472 1474 1475 1476 1479 1480 1481 1483 1485 1487 1488 1489 1491 1493 1494 1496 1497 1499 1500 1501 1501 1502 1504 1505 1505 1506
1460 1467 1475 1479 1477 1489 1474 1456 1456 1460 1461 1460 1461 1462 1463 1465 1467 1469 1470 1472 1473 1475 1477 1479 1480 1481 1483 1485 1487 1488 1489 1491 1492 1493 1495 1496 1496 1497 1498 1499 1500 1501 1502 1502
1451 1462 1475 1483 1486 1482 1466 1456 1455 1460 1465 1460 1460 1462 1463 1464 1468 1470 1470 1471 1472 1473 1475 1476 1478 1479 1480 1483 1485 1486 1487 1488 1490 1491 1492 1492 1493 1494 1495 1496 1497 1498 1499 1499
1450 1456 1470 1479 1484 1487 1469 1452 1449 1456 1469 1459 1458 1460 1461 1464 1472 1472 1470 1470 1471 1472 1474 1475 1476 1477 1479 1480 1482 1483 1484 1485 1486 1488 1489 1490 1490 1490 1491 1492 1493 1495 1496 1496
1462 1466 1472 1477 1480 1473 1457 1450 1450 1470 1470 1458 1456 1458 1460 1462 1464 1466 1467 1468 1470 1471 1472 1474 1475 1475 1476 1478 1479 1480 1481 1482 1483 1485 1486 1487 1488 1488 1488 1489 1490 1491 1492 1493
1466 1471 1473 1476 1480 1476 1452 1451 1456 1459 1455 1455 1454 1456 1458 1461 1463 1464 1465 1466 1468 1470 1471 1472 1473 1473 1474 1475 1476 1477 1478 1479 1481 1482 1483 1484 1485 1485 1486 1486 1487 1488 1489 1489
1461 1461 1463 1465 1466 1455 1451 1451 1452 1452 1454 1455 1455 1456 1457 1459 1461 1463 1464 1465 1467 1468 1469 1470 1471 1471 1472 1473 1474 1474 1475 1477 1478 1479 1479 1480 1481 1482 1483 1483 1484 1484 1485 1486
1457 1453 1456 1459 1456 1452 1451 1451 1451 1452 1454 1455 1455 1456 1458 1459 1460 1461 1462 1464 1465 1467 1468 1469 1469 1470 1470 1471 1471 1472 1473 1474 1475 1475 1476 1476 1477 1478 1479 1480 1481 1481 1482 1482
1458 1455 1457 1459 1456 1454 1453 1453 1453 1453 1454 1454 1455 1456 1457 1457 1459 1461 1462 1463 1464 1465 1466 1467 1468 1468 1469 1469 1469 1470 1470 1471 1471 1472 1473 1474 1474 1475 1476 1477 1478 1479 1479 1480
1457 1457 1459 1460 1455 1455 1455 1454 1453 1453 1453 1454 1455 1456 1457 1458 1458 1459 1461 1461 1462 1464 1465 1466 1466 1467 1467 1467 1467 1467 1468 1468 1468 1469 1470 1471 1471 1472 1473 1474 1475 1475 1476 1477